Location: Northcutt
(34.7304°N, 84.4305°W)
Time: 04:15:55
(UTC+00:00)

Vanguard 2 - Pass Details

Date: 04 October 2022
Orbit: 553 x 2933 km, 32.9° (Epoch: 05 December)

Event Time Altitude Azimuth Distance (km) Brightness Sun altitude
Rises 21:21:23 0° 276° (W) 5,463 12.9 22.3°
Reaches altitude 10° 21:24:31 10° 275° (W) 4,722 12.8 21.7°
Maximum altitude 21:39:06 79° 192° (SSW) 2,830 10.8 18.9°
Drops below altitude 10° 21:57:09 10° 109° (ESE) 5,676 11.5 15.4°
Sets 22:01:20 0° 109° (ESE) 6,568 11.8 14.5°
